Regional Weather Roundup
Issued by NWS

Home | Current Version | Previous Version | Text Only | Print | Product List | Glossary On
Versions: 1 2 3 4 5 6 7 8 9 10 11 12 13 14 15 16 17 18 19 20 21 22 23 24 25 26 27 28 29 30 31 32 33 34 35 36 37 38 39 40 41 42 43 44 45 46 47 48 49 50
758
ASUS45 KREV 112110
RWRNV
NEVADA REGIONAL WEATHER ROUNDUP
NATIONAL WEATHER SERVICE RENO NV
100 PM PST THU FEB 11 2016

NOTE: "FAIR" INDICATES FEW OR NO CLOUDS BELOW 12,000 FEET WITH NO
SIGNIFICANT WEATHER AND/OR OBSTRUCTIONS TO VISIBILITY.

NVZ001-003-004-112200-
WESTERN NEVADA

CITY           SKY/WX    TMP DP  RH WIND       PRES   REMARKS
RENO           CLOUDY    54  30  40 CALM      30.27F
CARSON CITY    FAIR      55  32  41 E6        30.28F
MINDEN         FAIR      52  28  40 CALM      30.28F
SLIDE MTN        N/A     43  14  31 W20         N/A
PYRAMID LAKE     N/A     46 N/A N/A NE3         N/A
FALLON         CLOUDY    56  36  47 CALM      30.27F
LOVELOCK       FAIR      55  37  50 NW5       30.28F
HAWTHORNE      SUNNY     52  34  50 CALM      30.29F
$$

NVZ002-CAZ072-073-112200-
NORTHERN AND CENTRAL SIERRA

CITY           SKY/WX    TMP DP  RH WIND       PRES   REMARKS
S. LAKE TAHOE  FAIR      49  30  48 NE7       30.32F
TRUCKEE        PTSUNNY   50  28  43 CALM      30.31F
SQUAW VLY 8000   N/A     48  12  23 W14         N/A
SUSANVILLE     SUNNY     55  37  50 CALM      30.28F
BLUE CANYON    FAIR      59  19  21 SE8       30.31F
MAMMOTH LAKES  FAIR      57  16  19 CALM      30.37F
BRIDGEPORT     FAIR      58  20  22 CALM      30.30F
$$

NVZ030-031-036-112200-
NORTHERN NEVADA

CITY           SKY/WX    TMP DP  RH WIND       PRES   REMARKS
ELKO           FAIR      35  22  58 NE6       30.38F
WINNEMUCCA     FAIR      54  33  45 N9        30.28F
WENDOVER       CLOUDY    30  25  80 SE3       30.45F
$$

NVZ035-037-112200-
CENTRAL NEVADA

CITY           SKY/WX    TMP DP  RH WIND       PRES   REMARKS
ELY            FAIR      39  23  52 S10       30.35F
EUREKA           N/A     35  22  58 CALM      30.36F
$$

NVZ013-014-112200-
SOUTH CENTRAL NEVADA

CITY           SKY/WX    TMP DP  RH WIND       PRES   REMARKS
TONOPAH        FAIR      50  32  50 VRB3      30.33F
$$

NVZ017-020-022-112200-
SOUTHERN NEVADA

CITY           SKY/WX    TMP DP  RH WIND       PRES   REMARKS
LAS VEGAS      FAIR      69  22  16 VRB3      30.18F
N. LAS VEGAS   FAIR      69  24  18 CALM      30.22F
NELLIS AFB     NOT AVBL
HENDERSON      FAIR      69  24  18 NE7       30.24F
MERCURY        FAIR      71  22  15 W3        30.23F
$$




USA.gov is the U.S. government's official web portal to all federal, state and local government web resources and services.